Winfield, KS

10:17 AM CST on December 06, 2019 (GMT -0600)
Strother

Weather History for KWLD - October, 2019

Change the Weather History Date:

Saturday, October 12, 2019

  Actual Average Record
Temperature  
Mean Temperature 50 °F -  
Max Temperature 68 °F 70 °F 84 °F (1999)
Min Temperature 32 °F 47 °F 39 °F (2003)
Degree Days  
Heating Degree Days 15    
Moisture  
Dew Point 30 °F    
Average Humidity 54    
Maximum Humidity 79    
Minimum Humidity 21    
Precipitation  
Precipitation 0.00 in - - ()
Sea Level Pressure  
Sea Level Pressure 30.12 in    
Wind  
Wind Speed 7 mph ()    
Max Wind Speed 24 mph    
Max Gust Speed 37 mph    
Visibility 10.0 miles    
Events      
Averages and records for this station are not official NWS values.
T = Trace of Precipitation, MM = Missing Value Source: Averaged Metar Reports

Daily Weather History Graph

Daily Weather History Graph

Search for Another Location

Airport or City:

Astronomy

Oct. 12, 2019 Rise Set
Actual Time 7:33 AM CDT 6:55 PM CDT
Civil Twilight 7:06 AM CDT 7:21 PM CDT
Nautical Twilight 6:36 AM CDT 7:51 PM CDT
Astronomical Twilight 6:06 AM CDT 8:22 PM CDT
Moon 6:49 PM CDT (10/12) 6:14 AM CDT (10/12)
Length of Visible Light 12h 14m
Length of Day
11h 22m
Waxing Gibbous, 99% of the Moon is Illuminated
Oct 12
Waxing Gibbous
Oct 13
Full
Oct 21
Last Quarter
Oct 27
New
Nov 4
First Quarter

Hourly Weather History & Observations

Time (CDT) Temp. Windchill Dew Point Humidity Pressure Visibility Wind Dir Wind Speed Gust Speed Precip Events Conditions
12:54 AM 34.0 °F 31.0 °F 28.0 °F 79% 30.27 in 10.0 mi South 3.5 mph - N/A   Clear
1:54 AM 35.1 °F - 27.0 °F 72% 30.27 in 10.0 mi Calm Calm - N/A   Clear
2:54 AM 35.1 °F 32.2 °F 28.0 °F 76% 30.25 in 10.0 mi South 3.5 mph - N/A   Clear
3:54 AM 34.0 °F - 27.0 °F 75% 30.24 in 10.0 mi Calm Calm - N/A   Clear
4:54 AM 33.1 °F 30.0 °F 26.1 °F 75% 30.23 in 10.0 mi SSW 3.5 mph - N/A   Clear
5:54 AM 32.0 °F 28.7 °F 26.1 °F 79% 30.22 in 10.0 mi South 3.5 mph - N/A   Clear
6:54 AM 33.1 °F 30.0 °F 27.0 °F 78% 30.22 in 10.0 mi SSE 3.5 mph - N/A   Clear
7:54 AM 32.0 °F 28.7 °F 26.1 °F 79% 30.22 in 10.0 mi South 3.5 mph - N/A   Clear
8:54 AM 37.9 °F 33.5 °F 30.9 °F 76% 30.20 in 10.0 mi SSW 5.8 mph - N/A   Clear
9:54 AM 48.9 °F - 33.1 °F 54% 30.19 in 10.0 mi SW 13.8 mph - N/A   Clear
10:54 AM 55.0 °F - 30.9 °F 40% 30.18 in 10.0 mi SW 13.8 mph 23.0 mph N/A   Clear
11:54 AM 60.1 °F - 32.0 °F 35% 30.16 in 10.0 mi SW 18.4 mph - N/A   Clear
12:54 PM 64.0 °F - 32.0 °F 30% 30.12 in 10.0 mi WSW 17.3 mph 26.5 mph N/A   Clear
1:54 PM 66.0 °F - 30.0 °F 26% 30.08 in 10.0 mi SW 21.9 mph 33.4 mph N/A   Clear
2:54 PM 66.9 °F - 28.9 °F 24% 30.04 in 10.0 mi SSW 24.2 mph 36.8 mph N/A   Clear
3:54 PM 68.0 °F - 27.0 °F 21% 30.00 in 10.0 mi SSW 23.0 mph 31.1 mph N/A   Clear
4:54 PM 66.9 °F - 27.0 °F 22% 29.99 in 10.0 mi SSW 19.6 mph 27.6 mph N/A   Clear
5:54 PM 63.0 °F - 27.0 °F 26% 29.99 in 10.0 mi SSW 13.8 mph - N/A   Clear
6:54 PM 52.0 °F - 32.0 °F 47% 29.99 in 10.0 mi South 5.8 mph - N/A   Clear
7:54 PM 50.0 °F - 32.0 °F 50% 30.00 in 10.0 mi SSE 8.1 mph - N/A   Clear
8:54 PM 48.9 °F - 34.0 °F 56% 30.00 in 10.0 mi South 10.4 mph - N/A   Clear
9:54 PM 46.0 °F 41.4 °F 34.0 °F 63% 29.99 in 10.0 mi South 9.2 mph - N/A   Clear
10:54 PM 46.0 °F 41.9 °F 32.0 °F 58% 29.99 in 10.0 mi South 8.1 mph - N/A   Clear
11:54 PM 44.1 °F 40.1 °F 30.9 °F 60% 29.98 in 10.0 mi South 6.9 mph - N/A   Clear